Regional Weather Roundup
Issued by NWS Little Rock, AR

Home | Current Version | Previous Version | Graphics & Text | Print | Product List | Glossary On
Versions: 1 2 3 4 5 6 7 8 9 10 11 12 13 14 15 16 17 18 19 20 21 22 23 24 25 26 27 28 29 30 31 32 33 34 35 36 37 38 39 40 41 42 43 44 45 46 47 48 49
000
ASUS44 KLZK 261605
RWRLZK

WEATHER ROUNDUP FOR ARKANSAS
NATIONAL WEATHER SERVICE LITTLE ROCK AR
1000 AM CST FRI DEC 26 2014

NOTE: "FAIR" INDICATES FEW OR NO CLOUDS BELOW 12,000 FEET WITH NO
SIGNIFICANT WEATHER AND/OR OBSTRUCTIONS TO VISIBILITY.

ARZ001-003-010-029-261700-
NORTHWEST ARKANSAS

CITY           SKY/WX    TMP DP  RH WIND       PRES   REMARKS
FAYETTEVILLE   MOSUNNY   52  45  77 S16       30.03R
FORT SMITH     MOSUNNY   51  43  74 E7        30.07R
HARRISON       MOSUNNY   46  43  89 SE13      30.08R
BENTONVILLE    PTSUNNY   55  43  62 S13       30.03R
ROGERS         PTSUNNY   54  44  69 S10       30.04R
SILOAM SPGS    CLOUDY    54  43  66 S15       30.03R
HIGHFILL       PTSUNNY   56  45  66 S14       30.01S
SPRINGDALE     MOSUNNY   54  45  71 S15       30.06R
$$

ARZ004-005-016-261700-
NORTH CENTRAL ARKANSAS

CITY           SKY/WX    TMP DP  RH WIND       PRES   REMARKS
BATESVILLE     CLOUDY    46  36  66 S10       30.20R
FLIPPIN        PTSUNNY   48  39  71 S6        30.12R
MTN HOME       PTSUNNY   47  42  83 S10       30.12R
$$

ARZ040-041-261700-
WEST CENTRAL ARKANSAS

CITY           SKY/WX    TMP DP  RH WIND       PRES   REMARKS
MENA           CLOUDY    52  48  87 SE9       30.09R
MOUNT IDA      CLOUDY    50  44  80 SE3       30.10R
$$

ARZ009-017-025-026-028-261700-
NORTHEAST ARKANSAS

CITY           SKY/WX    TMP DP  RH WIND       PRES   REMARKS
CORNING          N/A     46  39  76 S12       30.21R
JONESBORO      CLOUDY    44  40  85 S8        30.22R
NEWPORT        CLOUDY    47  40  76 S10       30.22R
WALNUT RIDGE   CLOUDY    45  37  76 S10       30.19R
BLYTHEVILLE    CLOUDY    48  40  73 S12       30.24R
$$

ARZ022-023-033-042-044-261700-
CENTRAL ARKANSAS

CITY           SKY/WX    TMP DP  RH WIND       PRES   REMARKS
LITTLE ROCK    CLOUDY    47  38  71 SE6       30.20R
N LITTLE ROCK  CLOUDY    45  40  82 SE6       30.20R
JACKSONVILLE   CLOUDY    46  39  76 SE7       30.19R
SEARCY         CLOUDY    46  40  79 S6        30.22R
HOT SPRINGS    CLOUDY    48  41  76 S5        30.16R
RUSSELLVILLE   CLOUDY    47  42  83 E7        30.14R
CLINTON        CLOUDY    46  41  81 CALM      30.19R
$$

ARZ036-261700-
EAST ARKANSAS

CITY           SKY/WX    TMP DP  RH WIND       PRES   REMARKS
WEST MEMPHIS   CLOUDY    48  40  73 S15       30.24R
$$

ARZ050-053-066-070-073-261700-
SOUTHWEST ARKANSAS

CITY           SKY/WX    TMP DP  RH WIND       PRES   REMARKS
ARKADELPHIA    PTSUNNY   49  45  86 CALM      30.16R
CAMDEN         CLOUDY    48  39  71 MISG      30.17R
TEXARKANA      LGT RAIN  50  47  89 SE12      30.10S
EL DORADO      CLOUDY    50  43  77 SE7       30.17R
DE QUEEN       CLOUDY    51  46  83 SE5       30.09R
$$

ARZ056-057-069-261700-
SOUTHEAST ARKANSAS

CITY           SKY/WX    TMP DP  RH WIND       PRES   REMARKS
PINE BLUFF     CLOUDY    50  38  63 SE9       30.20R
STUTTGART      CLOUDY    48  37  66 SE12      30.21R
MONTICELLO     CLOUDY    47  40  76 SE9       30.21R

$$




USA.gov is the U.S. government's official web portal to all federal, state and local government web resources and services.